This is the latest recevied weather packets stored in our database for station/object K6POO-1. If no packets are shown the sender has not sent any weather packets the latest 10 day(s).
| Time | Temp. | Humidity | Pressure | Rain* | Wind** | Luminosity | Snow |
|---|---|---|---|---|---|---|---|
| 1777852061 | 15.56° C | 68% | 1012.9 hPa | 0 mm | - | 261 W/m² | - |
| 1777851759 | 15.56° C | 67% | 1012.8 hPa | 0 mm | - | 249 W/m² | - |
| 1777851456 | 15.56° C | 67% | 1012.9 hPa | 0 mm | - | 307 W/m² | - |
| 1777851151 | 15.56° C | 67% | 1013 hPa | 0 mm | - | 397 W/m² | - |
| 1777850848 | 16.11° C | 66% | 1013.1 hPa | 0 mm | - | 358 W/m² | - |
| 1777850546 | 16.11° C | 68% | 1012.9 hPa | 0 mm | - | 340 W/m² | - |
| 1777850244 | 15.56° C | 67% | 1013.1 hPa | 0 mm | - | 388 W/m² | - |
| 1777849941 | 15.56° C | 67% | 1013 hPa | 0 mm | - | 374 W/m² | - |
| 1777849637 | 15.56° C | 67% | 1013.1 hPa | 0 mm | - | 369 W/m² | - |
| 1777849334 | 15.56° C | 68% | 1013 hPa | 0 mm | - | 320 W/m² | - |
| 1777849032 | 15.56° C | 68% | 1013 hPa | 0 mm | - | 297 W/m² | - |
| 1777848731 | 15.56° C | 67% | 1013.1 hPa | 0 mm | - | 287 W/m² | - |
| 1777848429 | 15.56° C | 68% | 1013.2 hPa | 0 mm | - | 268 W/m² | - |
| 1777848127 | 15.56° C | 68% | 1013.4 hPa | 0 mm | - | 286 W/m² | - |
| 1777847824 | 15.56° C | 68% | 1013.3 hPa | 0 mm | - | 314 W/m² | - |
| 1777847521 | 15.56° C | 67% | 1013.5 hPa | 0 mm | - | 324 W/m² | - |
| 1777847218 | 15.56° C | 67% | 1013.2 hPa | 0 mm | - | 315 W/m² | - |
| 1777846915 | 16.11° C | 69% | 1013.3 hPa | 0 mm | - | 309 W/m² | - |
| 1777846614 | 16.11° C | 71% | 1013.3 hPa | 0 mm | - | 302 W/m² | - |
| 1777846311 | 15.56° C | 72% | 1013.2 hPa | 0 mm | - | 325 W/m² | - |
| 1777846007 | 16.11° C | 71% | 1013.2 hPa | 0 mm | - | 354 W/m² | - |
| 1777845704 | 16.11° C | 69% | 1013.3 hPa | 0 mm | - | 399 W/m² | - |
| 1777845401 | 16.11° C | 69% | 1013.4 hPa | 0 mm | - | 381 W/m² | - |
| 1777845098 | 16.11° C | 70% | 1013.1 hPa | 0 mm | - | 404 W/m² | - |
| 1777844797 | 16.67° C | 69% | 1013.2 hPa | 0 mm | - | 494 W/m² | - |
* Rain latest hour (hover to see other rain measurements)
** Current wind speed in m/s (hover to see current wind gust speed)